Location: Bermeries
(50.2863°N, 3.7551°E)
Time: 11:10:25
(UTC+00:00)

Cosmos 2242 Rocket - Pass Details

Date: 23 May 2024
Orbit: 617 x 647 km, 82.5° (Epoch: 14 June)

Event Time Altitude Azimuth Distance (km) Brightness Sun altitude
Exits shadow 02:30:55 13° 209° (SSW) 1,817 5.3 -9.8°
Maximum altitude 02:34:46 52° 284° (WNW) 793 3.9 -9.4°
Drops below altitude 10° 02:39:10 10° 2° (N) 2,033 7.0 -9.0°
Sets 02:41:29 0° 7° (N) 2,952 8.0 -8.7°
